Location: Erp
(42.9417°N, 1.2009°E)
Time: 11:58:09
(UTC+00:00)

Cosmos 1959 Rocket - Pass Details

Date: 27 April 2026
Orbit: 946 x 997 km, 82.9° (Epoch: 12 May)

Event Time Altitude Azimuth Distance (km) Brightness Sun altitude
Rises 19:35:32 0° 204° (SSW) 3,694 7.5 -8.2°
Reaches altitude 10° 19:38:10 10° 210° (SSW) 2,745 6.9 -8.6°
Maximum altitude 19:44:12 47° 283° (WNW) 1,283 5.7 -9.6°
Drops below altitude 10° 19:50:14 10° 357° (N) 2,731 7.3 -10.5°
Sets 19:52:51 0° 3° (N) 3,675 7.9 -10.9°
